Simultaneous Nadir Overpasses (SNOs) Predictions

Prediction of SNOs between GOES-17 and NOAA-20 Satellite Orbit:

Table of predicted SNOs for the next 14.0 days since TLE Epoch: 8/14/2020
Index Date Time (GOES-17) GOES-17 Lat,Lon NOAA-20 Lat,Lon Distance(km) Time Diff (sec)
1 08/14/2020 22:15:04 -0.03,-137.19 0.90,-133.06 471.59 80
2 08/16/2020 10:39:30 0.03,-137.19 0.31,-138.32 129.03 80
3 08/17/2020 10:20:45 -0.00,-137.19 -0.75,-133.79 386.83 80
4 08/18/2020 22:40:02 0.01,-137.19 -0.39,-139.11 217.57 80
5 08/19/2020 22:23:56 0.01,-137.19 0.61,-134.57 298.75 80
6 08/21/2020 10:43:03 -0.00,-137.18 0.59,-139.83 302.70 80
7 08/22/2020 10:26:57 -0.00,-137.17 -0.41,-135.30 213.28 80
8 08/23/2020 22:46:12 0.00,-137.16 -0.79,-140.60 391.95 80
9 08/24/2020 22:30:08 0.00,-137.15 0.27,-136.07 123.59 80
10 08/26/2020 10:49:14 -0.01,-137.13 0.93,-141.33 479.25 80
11 08/27/2020 10:33:09 -0.00,-137.11 -0.07,-136.80 35.76 80
